Погода Узловая

Погода Узловая : погода сейчас, прогноз погоды и архив. Всё, что Вы хотите узнать о погоде Узловая!

Поиск расширенной информации на нашем сайте:

Другие новости

Новости СМИ2

Главная страница сайта

Новости сайта

02.10.2013

Напоминаем, что на нашем новом сайте вы можете получить высокодетализированные прогнозы погоды по пунктам России, СНГ и мира (включающие важные для авиации метеовеличины, такие как направление и скорость ветра, видимость, явления погоды, количество и форма облачности, нижняя и верхняя граница облачности), а также ознакомиться с разнообразными материалами по авиационной метеорологии и подборкой полезных ссылок на эту тему.

Сайт Метеоцентр.Азия посвящён разработке технологий оптимизации авиаметеорологического обслуживания, включая проектирование и перспективное создание нескольких автоматизированных авиаметеорологических систем:
- система выпуска высокодетальных прогностических карт явлений погоды для нижнего воздушного пространства по России и ближнему зарубежью;
- система верификации прогнозов TAF (выпускаемых синоптиками официальных АМСГ РФ и ближнего зарубежья) и AUTOTAF (выпускаемых сайтом Метеоцентр.Азия) - выявление ошибок, онлайн-сопоставление с фактической погодой METAR, автоматическое внесение коррективов в прогнозы при резком отклонении фактической погоды от прогноза, подсчёт оправдываемости прогнозов по элементам и в целом;
- система обработки, анализа и отображения авиаметеорологической информации для применения провайдерами метеорологической информации.

Рекомендуем: кровмаркет отзывы

Погода Узловая - сегодня

Время (UTC), дата Ветер
(°,м/с) 
Видим.   Явления Облачность Т
(°С)
Тd
(°С)
f(%) Тe
(°С)
Pmin
(гПа)
dP
(гПа)
Po
(мм)
O2
(г/м3)
Тmin Tmax R s Состояние
почвы
00 25.04.17 250 (З) 8000 м  дымка  3/0 верхняя 
[Ci sp]
-2.6 -3.7 92 -2  1013.4  1.2  738  301           
03 25.04.17 250 (З) 7000 м  дымка  ясно 
-2.8 -3.7 94 -2  1015.5  740  302  -3.4         
06 25.04.17 260 (З) 28000 м    1/0 верхняя 
[Ci sp]
+7.9 -4.4 41 +7  1016.3  1.9  741  291  -3.4        влажная 
09 25.04.17 250 (З) 30000 м    8/8 600 м кучево-дожд. 
[Cb cap]
+10.4 -9.4 24 +10  1016.5  0.4  742  289           
12 25.04.17 240 (ЮЗ) 5-10{11}  30000 м    8/8 600 м кучево-дожд. 
[Cb cap]
+12.4 -8.1 23 +12  1016.4  0.1  742  287           
15 25.04.17 250 (З) 4{10}  30000 м    4/4 600 м кучево-дожд. 
[Cb cap]
+10.6 -7.1 28 +10  1017  0.4  742  288           
18 25.04.17 220 (ЮЗ) 28000 м    3/3 600 м кучево-дожд. 
[Cb cap]
+5.3 -6.1 44 +6  1019.1  1.5  743  294    +12.8       
21 25.04.17 210 (ЮЗ) 30000 м    ясно 
+3.8 -5 53 +5  1019.6  0.4  743  296           
00 26.04.17 170 (Ю) 28000 м    10/10 1000 м 
[Sc]
+5.5 -3.9 51 +5  1018.8  -0.7  743  294           
03 26.04.17 190 (Ю) 25000 м    10/0 средняя 
[Ac As]
+6.4 -3 51 +5  1017.7  -0.9  742  293  +2.6         
06 26.04.17 190 (Ю) 6{12}  27000 м    9/0 верхняя 
[Ci sp]
+9.8 +0.1 51 +8  1017  -0.3  742  289  +2.6        влажная 
09 26.04.17 200 (Ю) 9-15{16}  29000 м    3/0 верхняя 
[Ci sp]
+15.8 +0.5 35 +15  1015.3  -1.1  741  282           
12 26.04.17 210 (ЮЗ) 9-16{17}  30000 м    8/0 верхняя 
[Ci sp]
+18.5 -0.7 27 +18  1013.7  -1.3  740  279           
15 26.04.17 200 (Ю) 9-15{18}  27000 м    9/0 верхняя 
[Ci sp]
+17.6 -2.2 26 +17  1013.2  -0.6  740  280           
18 26.04.17 200 (Ю) 7-12{15}  25000 м    9/0 верхняя 
[Ci sp]
+14.6 -0.7 35 +14  1014.6  1.1  741  283    +19.1       
21 26.04.17 210 (ЮЗ) 8-13{15}  25000 м    9/9 600 м кучево-дожд. 
[Cb cap]
+13.1 -0.7 39 +12  1015.1  0.3  741  285           
00 27.04.17 210 (ЮЗ) 7-12{14}  22000 м    9/0 верхняя 
[Ci sp]
+11.2 -0.3 45 +10  1015.2  -0.1  741  287           
03 27.04.17 210 (ЮЗ) 5{12}  22000 м    9/0 кучево-дожд., средняя 
[Cb cap|Ac trans]
+9.9 -0.3 49 +9  1016.1  0.8  741  288  +9.9         
06 27.04.17 210 (ЮЗ) 6{10}  25000 м  {ливн. осадки}  10/10 300 м кучево-дожд. 
[Cb cap]
+9.9 -0 50 +8  1016.9  0.8  742  288  +8.8    0.0     
09 27.04.17 200 (Ю) 7-10{12}  28000 м    10/0 средняя 
[Ac As]
+15.2 -1.8 31 +14  1016.2  -0.2  742  283           
12 27.04.17 210 (ЮЗ) 10-15{16}  25000 м    8/0 средняя, верхняя 
[Ac trans|Ci sp]
+20.2 -4.4 19 +20  1014.4  -1.3  741  278           
15 27.04.17 210 (ЮЗ) 8-12{17}  29000 м    8/5 300 м кучево-дожд., средняя 
[Cb cap|Ac trans]
+19.7 -3.7 20 +20  1014.1  -0.4  740  279           
18 27.04.17 200 (Ю) 6{14}  35000 м    8/0 средняя, верхняя 
[Ac trans|Cs]
+17.2 -4.8 22 +17  1014.9  0.6  741  281    +20.6       
21 27.04.17 210 (ЮЗ) 6{11}  35000 м    4/0 средняя 
[Ac trans]
+14.8 -6.6 22 +14  1015.7  0.6  741  284           
00 28.04.17 200 (Ю) 5{11}  30000 м    3/0 верхняя 
[Ci fib]
+12.9 -6.1 26 +12  1016.2  0.3  742  286           
Время (UTC), дата Ветер
(°,м/с) 
Видим.   Явления Облачность Т
(°С)
Тd
(°С)
f(%) Тe
(°С)
Pmin
(гПа)
dP
(гПа)
Po
(мм)
O2
(г/м3)
Тmin Tmax R s Состояние
почвы

Для получения пояснительной информации подведите курсор к названию столбца.

ПОГОДА Узловая - архив

Всё, что Вы хотите узнать о погоде Узловая - удобно и подробно!

Выберите нужную дату (начиная с 1 января 2015* года) и нажмите кнопку "Найти".
Будут отображены архивные сводки погоды по пункту Узловая, начиная с указанной даты.


Отображать данные в формате CSV (для использования в таблицах Excel)


Внимание! Наш архив погоды предназначен исключительно для личного некоммерческого использования в познавательных целях. Если Вам необходимы официальные справки о состоянии погоды (для производственных, юридических, коммерческих и т.п. целей), обращайтесь в органы Росгидромета.

*Примечание: данная дата относится к архиву по метеостанциям СССР (Россия, СНГ, Балтия).
Архив по метеостанциям Зарубежной Европы и Азии (кроме Китая) хранится 10 дней, по другим регионам земного шара (Китай, Африка, Америка, Австралия, Океания) - 1 день.

Узловая - район местоположения метеостанции


Название, широта, долгота, высота метеостанции:
Узловая 54°ш. 38.1°д. 231 м над ур. моря [Российская Федерация]

Дополнительная информация

В oтличие oт бoльшинства пoгoдных сайтoв мы публикуем пoдрoбную метеoинфoрмацию в детальнoм прoфессиoнальнoм фoрмате.

Характеристики температуры и влажнoсти вoздуха измеряются на высoте 2 м в тени вдали oт зданий и деревьев.
Скoрoсть ветра измеряется на высoте 10 м (на урoвне рoста челoвека скoрoсть ветра ниже в 1.5-2 раза). Если метеoстанция нахoдится в гoрoде или в лесу, тo скoрoсть ветра занижена на 2-4 м/с пo сравнению с oткрытым местoм. Скoрoсть ветра над акватoриями крупных рек и oзёр, а также на вершинах хoлмoв на 2-5 м/с выше, чем в oбычных услoвиях.
Атмoсфернoе давление в разных тoчках местнoсти мoжет значительнo oтличаться oт давления на метеoстанции, в зависимoсти oт услoвий рельефа (при пoдъёме на 10 м давление пoнижается примернo на 1 мм рт.ст.).